User: anonymous   Login
Location: Unspecified
(0.0000°N, 0.0000°E)
Time: 14:34:49
(UTC+00:00)
Language:

NANOSAT-1 - Orbit

View from above orbital plane
View from above orbital plane
View from above satellite
View from above satellite

Ground track
Ground track

The orbit data is extracted from the following two-line orbital elements,

1 28493U 04049B   18261.43748998  .00000039  00000-0  13931-4 0  9996
2 28493  98.1590 339.5315 0004228 359.2521   0.8680 14.73444331738400
Epoch (UTC): 18 September 2018 10:29:59
Eccentricity: 0.0004228
inclination: 98.1590°
perigee height: 647 km
apogee height: 653 km
right ascension of ascending node: 339.5315°
argument of perigee: 359.2521°
revolutions per day: 14.73444331
mean anomaly at epoch: 0.8680°
orbit number at epoch: 73840

The dashed part of the orbit path shows where the satellite is in the earth's shadow,  

DLR